KC3ZFY-W Weather Reports


time (UTC)temp
C
wind
direction
speed
KPH
gust
KPH
rain 1hr
cm
rain 24hr
cm
rain mn
cm
humidity
%
barometer
mb
20260504110506 8 186 0.0 3.2 0.00 0.00 0.00 71 1015.4
20260504100503 8 185 0.0 0.0 0.00 0.00 0.00 73 1015.2
20260504082004 7 263 0.0 3.2 0.00 0.00 0.00 80 1015.5
20260504081525 7 262 0.0 3.2 0.00 0.00 0.00 81 1015.5
20260504081013 6 231 0.0 1.6 0.00 0.00 0.00 81 1015.5
20260504080508 6 235 0.0 0.0 0.00 0.00 0.00 81 1015.4
20260504050503 5 224 0.0 0.0 0.00 0.00 0.00 80 1015.8
20260504050022 5 224 0.0 0.0 0.00 0.00 0.00 80 1015.8
20260504045507 4 224 0.0 0.0 0.00 0.00 0.00 79 1015.7
20260504045009 5 224 0.0 0.0 0.00 0.00 0.00 79 1015.7
20260504044522 5 224 0.0 0.0 0.00 0.00 0.00 79 1015.8
20260504044010 5 224 0.0 0.0 0.00 0.00 0.00 79 1015.8
20260504043509 5 224 0.0 0.0 0.00 0.00 0.00 78 1015.7
20260504043024 5 224 0.0 0.0 0.00 0.00 0.00 78 1015.6
20260504042508 5 224 0.0 0.0 0.00 0.00 0.00 78 1015.6
20260504042010 5 224 0.0 0.0 0.00 0.00 0.00 77 1015.6
20260504041527 5 224 0.0 0.0 0.00 0.00 0.00 75 1015.7
20260504041004 5 224 0.0 0.0 0.00 0.00 0.00 75 1015.7
20260504040503 5 224 0.0 0.0 0.00 0.00 0.00 75 1015.7
20260504040035 5 224 0.0 0.0 0.00 0.00 0.00 75 1015.7
20260504035508 5 224 0.0 0.0 0.00 0.00 0.00 75 1015.7
20260504035008 5 225 0.0 0.0 0.00 0.00 0.00 75 1015.6
20260504034523 5 224 0.0 0.0 0.00 0.00 0.00 75 1015.6
20260504034004 5 224 0.0 0.0 0.00 0.00 0.00 74 1015.6
20260504033508 5 224 0.0 0.0 0.00 0.00 0.00 74 1015.5
20260504033026 5 224 0.0 0.0 0.00 0.00 0.00 74 1015.6
20260504032503 5 225 0.0 0.0 0.00 0.00 0.00 72 1015.5
20260504032005 6 224 0.0 0.0 0.00 0.00 0.00 71 1015.5
20260504031510 6 224 0.0 0.0 0.00 0.00 0.00 71 1015.5
20260504031004 6 224 0.0 0.0 0.00 0.00 0.00 70 1015.4
20260504030503 6 224 0.0 0.0 0.00 0.00 0.00 70 1015.4
20260504030013 6 224 0.0 0.0 0.00 0.00 0.00 69 1015.3
20260504025504 6 224 0.0 0.0 0.00 0.00 0.00 69 1015.4
20260504025006 6 224 0.0 0.0 0.00 0.00 0.00 68 1015.3
20260504024514 6 224 0.0 1.6 0.00 0.00 0.00 68 1015.3
20260504024004 6 224 0.0 1.6 0.00 0.00 0.00 67 1015.4
20260504023502 7 179 0.0 0.0 0.00 0.00 0.00 66 1015.2
20260504023006 7 179 0.0 0.0 0.00 0.00 0.00 64 1015.1
20260504022504 7 179 0.0 0.0 0.00 0.00 0.00 63 1015.2
20260504022002 7 179 0.0 0.0 0.00 0.00 0.00 63 1015.3
20260504021504 7 179 0.0 0.0 0.00 0.00 0.00 62 1015.3
20260504021005 7 179 0.0 0.0 0.00 0.00 0.00 61 1015.2
20260504020504 7 179 0.0 0.0 0.00 0.00 0.00 60 1015.2
20260504020011 8 179 0.0 0.0 0.00 0.00 0.00 60 1015.1
20260504015505 8 179 0.0 0.0 0.00 0.00 0.00 60 1015.1
20260504015007 8 179 0.0 0.0 0.00 0.00 0.00 59 1015.1
20260504014522 8 179 0.0 0.0 0.00 0.00 0.00 58 1015.0
20260504014006 8 179 0.0 0.0 0.00 0.00 0.00 56 1015.0
20260504013505 8 179 0.0 0.0 0.00 0.00 0.00 56 1015.0
20260504013017 9 179 0.0 0.0 0.00 0.00 0.00 55 1015.0
20260504012502 9 179 0.0 0.0 0.00 0.00 0.00 54 1015.0
20260504012004 10 179 0.0 0.0 0.00 0.00 0.00 53 1014.9
20260504011504 10 179 0.0 0.0 0.00 0.00 0.00 51 1014.9
20260504011003 10 179 0.0 0.0 0.00 0.00 0.00 50 1014.8
20260504010503 10 179 0.0 0.0 0.00 0.00 0.00 50 1014.8
20260504010009 11 179 0.0 0.0 0.00 0.00 0.00 49 1014.8
20260504005504 11 179 0.0 0.0 0.00 0.00 0.00 49 1014.8
20260504005005 11 179 0.0 0.0 0.00 0.00 0.00 48 1014.8
20260504004514 11 179 0.0 0.0 0.00 0.00 0.00 46 1014.7
20260504004005 11 179 0.0 0.0 0.00 0.00 0.00 44 1014.8
20260504003507 12 179 0.0 0.0 0.00 0.00 0.00 43 1014.7
20260504003018 12 179 0.0 0.0 0.00 0.00 0.00 42 1014.6
20260504002506 12 179 0.0 0.0 0.00 0.00 0.00 40 1014.5
20260504002005 13 179 0.0 0.0 0.00 0.00 0.00 40 1014.4
20260504001518 13 179 0.0 0.0 0.00 0.00 0.00 39 1014.4
20260504001002 13 179 0.0 0.0 0.00 0.00 0.00 38 1014.4
20260504000504 13 179 0.0 0.0 0.00 0.00 0.00 37 1014.4
20260504000007 14 179 0.0 1.6 0.00 0.00 0.00 36 1014.3
20260503235502 14 179 0.0 3.2 0.00 0.00 0.00 35 1014.3
20260503235005 15 238 0.0 3.2 0.00 0.00 0.00 35 1014.3
20260503234510 15 289 0.0 0.0 0.00 0.00 0.00 34 1014.2
20260503234003 15 289 0.0 3.2 0.00 0.00 0.00 33 1014.1
20260503233503 15 289 0.0 3.2 0.00 0.00 0.00 34 1014.1
20260503233020 15 284 0.0 3.2 0.00 0.00 0.00 32 1014.1
20260503232507 15 5 0.0 4.8 0.00 0.00 0.00 32 1014.1
20260503232008 15 173 0.0 12.9 0.00 0.00 0.00 31 1014.0
20260503231518 16 289 4.8 12.9 0.00 0.00 0.00 30 1014.0
20260503231007 16 276 0.0 8.0 0.00 0.00 0.00 31 1014.0
20260503230508 16 36 1.6 8.0 0.00 0.00 0.00 30 1014.0
20260503230003 16 289 3.2 6.4 0.00 0.00 0.00 29 1014.0
20260503225503 16 330 0.0 11.3 0.00 0.00 0.00 28 1014.0
20260503225004 16 263 3.2 11.3 0.00 0.00 0.00 28 1014.0
20260503224509 16 5 1.6 19.3 0.00 0.00 0.00 28 1014.1
20260503224003 16 105 1.6 19.3 0.00 0.00 0.00 28 1014.1
20260503223503 16 14 3.2 11.3 0.00 0.00 0.00 29 1014.1
20260503223014 17 34 3.2 12.9 0.00 0.00 0.00 28 1014.1
20260503222503 17 250 4.8 12.9 0.00 0.00 0.00 30 1014.0
20260503222008 17 296 4.8 14.5 0.00 0.00 0.00 27 1014.0
20260503221518 17 327 0.0 17.7 0.00 0.00 0.00 29 1014.1
20260503221009 16 250 3.2 17.7 0.00 0.00 0.00 28 1014.1
20260503220508 17 44 9.7 17.7 0.00 0.00 0.00 27 1014.2
20260503220020 17 331 4.8 22.5 0.00 0.00 0.00 28 1014.2
20260503215507 17 34 3.2 22.5 0.00 0.00 0.00 27 1014.2
20260503215006 17 298 4.8 22.5 0.00 0.00 0.00 28 1014.3
20260503214507 17 280 4.8 22.5 0.00 0.00 0.00 28 1014.2
20260503214002 17 13 3.2 19.3 0.00 0.00 0.00 27 1014.2
20260503213508 17 298 9.7 19.3 0.00 0.00 0.00 27 1014.1
20260503213017 17 352 4.8 17.7 0.00 0.00 0.00 27 1014.1
20260503212503 17 360 3.2 20.9 0.00 0.00 0.00 27 1014.1
20260503212008 17 9 4.8 20.9 0.00 0.00 0.00 28 1014.1
20260503211517 17 298 6.4 20.9 0.00 0.00 0.00 29 1014.2
20260503211011 17 5 4.8 27.4 0.00 0.00 0.00 27 1014.2
20260503210508 17 325 8.0 27.4 0.00 0.00 0.00 28 1014.2
20260503210022 17 259 1.6 17.7 0.00 0.00 0.00 30 1014.1
20260503205512 17 215 3.2 17.7 0.00 0.00 0.00 28 1014.1
20260503205007 17 315 6.4 19.3 0.00 0.00 0.00 28 1014.2
20260503204527 17 14 6.4 19.3 0.00 0.00 0.00 28 1014.3
20260503204016 17 301 6.4 20.9 0.00 0.00 0.00 29 1014.2
20260503203503 17 225 6.4 20.9 0.00 0.00 0.00 28 1014.3
20260503203013 16 93 6.4 24.1 0.00 0.00 0.00 29 1014.4
20260503202506 16 285 11.3 24.1 0.00 0.00 0.00 29 1014.4
20260503202010 16 203 4.8 30.6 0.00 0.00 0.00 29 1014.4
20260503201514 16 18 8.0 30.6 0.00 0.00 0.00 30 1014.5
20260503201003 16 287 6.4 19.3 0.00 0.00 0.00 31 1014.5
20260503200507 16 313 9.7 22.5 0.00 0.00 0.00 30 1014.6
20260503200020 16 9 9.7 22.5 0.00 0.00 0.00 30 1014.8
20260503195507 16 17 1.6 12.9 0.00 0.00 0.00 32 1014.7
20260503195010 16 57 3.2 17.7 0.00 0.00 0.00 30 1014.8
20260503194524 16 352 4.8 19.3 0.00 0.00 0.00 30 1015.0
20260503194008 16 325 4.8 19.3 0.00 0.00 0.00 30 1015.1
20260503193510 16 254 4.8 24.1 0.00 0.00 0.00 32 1015.1
20260503193036 16 292 6.4 24.1 0.00 0.00 0.00 30 1015.1
20260503192502 16 15 3.2 22.5 0.00 0.00 0.00 32 1015.1
20260503192005 16 298 8.0 22.5 0.00 0.00 0.00 33 1015.2
20260503191510 16 360 9.7 24.1 0.00 0.00 0.00 32 1015.2
20260503191010 16 52 9.7 24.1 0.00 0.00 0.00 32 1015.4
20260503190503 16 344 4.8 16.1 0.00 0.00 0.00 31 1015.5
20260503190016 16 331 3.2 16.1 0.00 0.00 0.00 31 1015.4
20260503185509 16 21 4.8 24.1 0.00 0.00 0.00 31 1015.5
20260503185008 16 198 11.3 24.1 0.00 0.00 0.00 30 1015.4
20260503184525 16 277 6.4 24.1 0.00 0.00 0.00 31 1015.5
20260503184010 16 296 8.0 24.1 0.00 0.00 0.00 32 1015.5
20260503183507 15 229 3.2 14.5 0.00 0.00 0.00 32 1015.7
20260503183025 15 352 3.2 16.1 0.00 0.00 0.00 32 1015.7
20260503182509 15 311 4.8 17.7 0.00 0.00 0.00 31 1015.7
20260503182012 15 276 6.4 20.9 0.00 0.00 0.00 32 1016.0
20260503181526 15 9 8.0 20.9 0.00 0.00 0.00 33 1015.9
20260503181003 15 56 4.8 22.5 0.00 0.00 0.00 32 1015.8
20260503180506 15 33 3.2 22.5 0.00 0.00 0.00 32 1015.8
20260503180018 15 347 8.0 17.7 0.00 0.00 0.00 32 1016.0
20260503175510 15 44 4.8 25.7 0.00 0.00 0.00 32 1015.8
20260503175006 14 352 8.0 25.7 0.00 0.00 0.00 34 1015.8
20260503174519 14 278 11.3 25.7 0.00 0.00 0.00 34 1016.0
20260503174006 14 279 14.5 25.7 0.00 0.00 0.00 33 1016.1
20260503173506 15 65 6.4 25.7 0.00 0.00 0.00 33 1016.1
20260503173025 15 26 6.4 25.7 0.00 0.00 0.00 34 1016.1
20260503172510 15 299 6.4 16.1 0.00 0.00 0.00 32 1015.9
20260503172010 14 329 4.8 20.9 0.00 0.00 0.00 33 1016.1
20260503171526 13 316 4.8 29.0 0.00 0.00 0.00 34 1016.1
20260503171008 13 352 4.8 29.0 0.00 0.00 0.00 33 1016.2
20260503170511 14 9 3.2 20.9 0.00 0.00 0.00 32 1016.3
20260503151008 12 275 8.0 19.3 0.00 0.00 0.00 36 1016.8
20260503150508 12 196 4.8 19.3 0.00 0.00 0.00 37 1016.8
20260503131012 9 321 6.4 20.9 0.00 0.00 0.00 47 1017.2
20260503130507 9 319 6.4 20.9 0.00 0.00 0.00 47 1017.2